JST515 YSSY-YMML

Flight info

Callsign JST515
Flight time 1h 3m
Altitude 32000
Route WOL DCT CB DCT BOYSE
Aircraft A320/M-VGDW/C

Departure

Time 2026-05-06 23:03
Airport Sydney Kingsford Smith International Airport (YSSY)

Arrival

Time 2026-05-07 00:06
Airport Melbourne Airport (YMML)
Time Latitude Longitude Altitude Speed Heading
2026-05-06 22:59 -33.93461 151.17697 30 ft 0 kts 99°
2026-05-06 23:00 -33.93454 151.17670 30 ft 7 kts 175°
2026-05-06 23:00 -33.93580 151.17650 30 ft 19 kts 201°
2026-05-06 23:00 -33.93722 151.17584 29 ft 27 kts 180°
2026-05-06 23:00 -33.93922 151.17617 29 ft 30 kts 167°
2026-05-06 23:01 -33.94122 151.17669 29 ft 28 kts 166°
2026-05-06 23:01 -33.94287 151.17720 30 ft 19 kts 178°
2026-05-06 23:01 -33.94366 151.17641 30 ft 18 kts 251°
2026-05-06 23:01 -33.94372 151.17536 30 ft 6 kts 314°
2026-05-06 23:02 -33.94296 151.17512 31 ft 37 kts 350°
2026-05-06 23:02 -33.93793 151.17376 27 ft 110 kts 349°
2026-05-06 23:02 -33.92852 151.17136 248 ft 160 kts 347°
2026-05-06 23:02 -33.91622 151.16672 427 ft 214 kts 325°
2026-05-06 23:03 -33.90647 151.15205 1081 ft 240 kts 289°
2026-05-06 23:03 -33.90482 151.13259 1797 ft 238 kts 258°
2026-05-06 23:03 -33.91227 151.11528 2530 ft 235 kts 229°
2026-05-06 23:03 -33.92405 151.10160 3220 ft 238 kts 226°
2026-05-06 23:04 -33.93490 151.08674 3905 ft 233 kts 239°
2026-05-06 23:04 -33.94323 151.07015 4606 ft 233 kts 243°
2026-05-06 23:04 -33.95108 151.05294 5312 ft 234 kts 244°
2026-05-06 23:04 -33.95886 151.03565 6021 ft 237 kts 244°
2026-05-06 23:05 -33.96690 151.01805 6719 ft 240 kts 244°
2026-05-06 23:05 -33.97518 151.00048 7379 ft 245 kts 242°
2026-05-06 23:05 -33.98762 150.98594 8063 ft 266 kts 217°
2026-05-06 23:05 -34.00478 150.97622 8766 ft 277 kts 208°
2026-05-06 23:06 -34.02318 150.96808 9485 ft 287 kts 206°
2026-05-06 23:06 -34.04250 150.96056 10181 ft 296 kts 204°
2026-05-06 23:06 -34.06278 150.95326 10810 ft 314 kts 204°
2026-05-06 23:06 -34.08436 150.94583 11425 ft 332 kts 203°
2026-05-06 23:07 -34.10720 150.93819 12064 ft 349 kts 203°
2026-05-06 23:07 -34.13085 150.93045 12695 ft 365 kts 202°
2026-05-06 23:07 -34.15585 150.92235 13355 ft 380 kts 202°
2026-05-06 23:07 -34.18184 150.91396 14006 ft 393 kts 202°
2026-05-06 23:08 -34.20869 150.90533 14604 ft 405 kts 202°
2026-05-06 23:08 -34.23632 150.89642 15216 ft 416 kts 202°
2026-05-06 23:08 -34.26463 150.88729 15831 ft 426 kts 202°
2026-05-06 23:08 -34.29361 150.87793 16467 ft 435 kts 202°
2026-05-06 23:09 -34.32314 150.86837 17109 ft 443 kts 202°
2026-05-06 23:09 -34.35319 150.85861 17770 ft 451 kts 202°
2026-05-06 23:09 -34.38370 150.84869 18429 ft 457 kts 202°
2026-05-06 23:09 -34.41416 150.83874 19011 ft 463 kts 203°
2026-05-06 23:10 -34.44544 150.82856 19619 ft 468 kts 202°
2026-05-06 23:10 -34.47699 150.81823 20232 ft 472 kts 203°
2026-05-06 23:10 -34.50882 150.80775 20860 ft 476 kts 203°
2026-05-06 23:10 -34.53989 150.79493 21501 ft 466 kts 214°
2026-05-06 23:11 -34.56623 150.77355 22168 ft 448 kts 231°
2026-05-06 23:11 -34.58572 150.74518 22848 ft 432 kts 245°
2026-05-06 23:11 -34.60096 150.71449 23522 ft 429 kts 249°
2026-05-06 23:11 -34.61542 150.68279 24121 ft 429 kts 250°
2026-05-06 23:12 -34.62958 150.65087 24710 ft 430 kts 251°
2026-05-06 23:12 -34.64366 150.61883 25315 ft 430 kts 251°
2026-05-06 23:12 -34.65773 150.58681 25917 ft 429 kts 251°
2026-05-06 23:12 -34.67183 150.55489 26551 ft 429 kts 252°
2026-05-06 23:13 -34.68597 150.52307 27189 ft 427 kts 252°
2026-05-06 23:13 -34.70009 150.49139 27860 ft 426 kts 252°
2026-05-06 23:13 -34.71421 150.45984 28524 ft 423 kts 252°
2026-05-06 23:13 -34.72826 150.42859 29206 ft 420 kts 252°
2026-05-06 23:14 -34.74209 150.39797 29905 ft 417 kts 252°
2026-05-06 23:14 -34.75601 150.36721 30547 ft 413 kts 252°
2026-05-06 23:14 -34.76976 150.33669 31169 ft 409 kts 252°
2026-05-06 23:14 -34.78338 150.30637 31661 ft 409 kts 252°
2026-05-06 23:15 -34.79707 150.27580 31877 ft 415 kts 251°
2026-05-06 23:15 -34.81098 150.24470 31978 ft 423 kts 251°
2026-05-06 23:15 -34.82520 150.21289 32017 ft 433 kts 251°
2026-05-06 23:16 -34.85165 150.15391 32039 ft 450 kts 250°
2026-05-06 23:16 -34.88189 150.08699 32047 ft 451 kts 250°
2026-05-06 23:17 -34.91228 150.02008 32054 ft 452 kts 250°
2026-05-06 23:17 -34.94269 149.95302 32060 ft 452 kts 249°
2026-05-06 23:18 -34.97283 149.88643 32061 ft 451 kts 249°
2026-05-06 23:18 -35.00310 149.81941 32070 ft 451 kts 249°
2026-05-06 23:19 -35.03340 149.75235 32080 ft 452 kts 249°
2026-05-06 23:19 -35.06363 149.68512 32082 ft 452 kts 249°
2026-05-06 23:20 -35.09378 149.61773 32089 ft 453 kts 249°
2026-05-06 23:20 -35.12375 149.55072 32090 ft 453 kts 249°
2026-05-06 23:21 -35.15390 149.48319 32084 ft 453 kts 248°
2026-05-06 23:21 -35.18404 149.41552 32076 ft 454 kts 248°
2026-05-06 23:22 -35.21420 149.34766 32069 ft 455 kts 248°
2026-05-06 23:22 -35.24418 149.28007 32057 ft 456 kts 248°
2026-05-06 23:23 -35.27561 149.21253 32058 ft 461 kts 243°
2026-05-06 23:23 -35.30995 149.15160 32057 ft 463 kts 241°
2026-05-06 23:24 -35.34769 149.08758 32060 ft 464 kts 240°
2026-05-06 23:24 -35.38578 149.02365 32074 ft 464 kts 240°
2026-05-06 23:25 -35.42371 148.96010 32087 ft 466 kts 240°
2026-05-06 23:25 -35.46196 148.89596 32102 ft 466 kts 239°
2026-05-06 23:26 -35.50029 148.83161 32128 ft 467 kts 239°
2026-05-06 23:26 -35.53869 148.76703 32135 ft 469 kts 239°
2026-05-06 23:27 -35.57717 148.70222 32134 ft 470 kts 238°
2026-05-06 23:27 -35.61543 148.63774 32142 ft 470 kts 238°
2026-05-06 23:28 -35.65390 148.57280 32156 ft 470 kts 238°
2026-05-06 23:28 -35.69235 148.50777 32157 ft 470 kts 238°
2026-05-06 23:29 -35.73081 148.44258 32165 ft 471 kts 238°
2026-05-06 23:29 -35.76901 148.37776 32173 ft 471 kts 237°
2026-05-06 23:30 -35.80743 148.31241 32171 ft 471 kts 237°
2026-05-06 23:30 -35.84579 148.24706 32174 ft 470 kts 237°
2026-05-06 23:31 -35.88409 148.18167 32182 ft 470 kts 237°
2026-05-06 23:31 -35.92207 148.11673 32176 ft 470 kts 236°
2026-05-06 23:32 -35.96030 148.05123 32181 ft 470 kts 236°
2026-05-06 23:32 -35.99850 147.98569 32180 ft 470 kts 236°
2026-05-06 23:33 -36.03479 147.92331 32178 ft 470 kts 236°
2026-05-06 23:33 -36.07225 147.85878 32173 ft 469 kts 236°
2026-05-06 23:34 -36.11025 147.79322 32175 ft 469 kts 236°
2026-05-06 23:34 -36.14814 147.72773 32176 ft 468 kts 235°
2026-05-06 23:35 -36.18598 147.66218 32181 ft 468 kts 235°
2026-05-06 23:35 -36.22372 147.59667 32179 ft 467 kts 235°
2026-05-06 23:36 -36.26113 147.53159 32177 ft 467 kts 234°
2026-05-06 23:36 -36.29873 147.46607 32177 ft 466 kts 234°
2026-05-06 23:37 -36.33625 147.40059 32180 ft 465 kts 234°
2026-05-06 23:37 -36.37364 147.33521 32176 ft 464 kts 234°
2026-05-06 23:38 -36.41068 147.27033 32181 ft 464 kts 234°
2026-05-06 23:38 -36.44789 147.20503 32184 ft 462 kts 234°
2026-05-06 23:39 -36.48495 147.13986 32174 ft 461 kts 234°
2026-05-06 23:39 -36.52189 147.07473 32185 ft 460 kts 233°
2026-05-06 23:40 -36.55847 147.01014 32188 ft 459 kts 233°
2026-05-06 23:40 -36.59516 146.94523 32187 ft 458 kts 233°
2026-05-06 23:41 -36.63172 146.88041 32192 ft 457 kts 233°
2026-05-06 23:41 -36.66822 146.81560 32012 ft 458 kts 233°
2026-05-06 23:41 -36.68626 146.78345 31407 ft 459 kts 232°
2026-05-06 23:42 -36.70446 146.75088 30824 ft 458 kts 232°
2026-05-06 23:42 -36.72048 146.72216 30336 ft 457 kts 231°
2026-05-06 23:42 -36.73859 146.68967 29686 ft 456 kts 231°
2026-05-06 23:42 -36.75669 146.65723 29014 ft 455 kts 230°
2026-05-06 23:43 -36.77473 146.62491 28361 ft 454 kts 230°
2026-05-06 23:43 -36.79275 146.59262 27715 ft 452 kts 230°
2026-05-06 23:43 -36.80849 146.56438 27186 ft 449 kts 229°
2026-05-06 23:43 -36.82595 146.53299 26611 ft 441 kts 229°
2026-05-06 23:44 -36.84316 146.50196 26057 ft 430 kts 229°
2026-05-06 23:44 -36.86013 146.47144 25505 ft 426 kts 228°
2026-05-06 23:44 -36.87691 146.44125 24988 ft 421 kts 228°
2026-05-06 23:44 -36.89349 146.41140 24485 ft 415 kts 227°
2026-05-06 23:45 -36.90990 146.38187 23987 ft 413 kts 227°
2026-05-06 23:45 -36.92618 146.35258 23457 ft 407 kts 227°
2026-05-06 23:45 -36.94234 146.32362 22897 ft 406 kts 227°
2026-05-06 23:45 -36.95824 146.29526 22350 ft 397 kts 227°
2026-05-06 23:46 -36.97357 146.26767 21832 ft 377 kts 227°
2026-05-06 23:46 -36.98816 146.24133 21359 ft 360 kts 227°
2026-05-06 23:46 -37.00212 146.21611 20913 ft 346 kts 228°
2026-05-06 23:46 -37.01579 146.19152 20472 ft 344 kts 228°
2026-05-06 23:47 -37.02952 146.16699 20037 ft 344 kts 228°
2026-05-06 23:47 -37.04317 146.14257 19625 ft 342 kts 229°
2026-05-06 23:47 -37.05674 146.11826 19238 ft 340 kts 229°
2026-05-06 23:47 -37.07006 146.09436 18857 ft 339 kts 230°
2026-05-06 23:48 -37.08197 146.07293 18514 ft 337 kts 230°
2026-05-06 23:48 -37.09529 146.04886 18068 ft 336 kts 230°
2026-05-06 23:48 -37.10857 146.02479 17621 ft 335 kts 231°
2026-05-06 23:48 -37.12177 146.00082 17193 ft 332 kts 231°
2026-05-06 23:49 -37.13484 145.97702 16783 ft 331 kts 231°
2026-05-06 23:49 -37.14789 145.95325 16365 ft 330 kts 231°
2026-05-06 23:49 -37.16087 145.92958 15967 ft 330 kts 232°
2026-05-06 23:49 -37.17373 145.90617 15583 ft 330 kts 232°
2026-05-06 23:50 -37.18670 145.88255 15234 ft 328 kts 232°
2026-05-06 23:50 -37.21102 145.83814 14553 ft 328 kts 233°
2026-05-06 23:50 -37.22392 145.81457 14210 ft 328 kts 233°
2026-05-06 23:51 -37.23683 145.79093 13851 ft 328 kts 233°
2026-05-06 23:51 -37.24949 145.76760 13482 ft 316 kts 234°
2026-05-06 23:51 -37.26133 145.74562 13141 ft 301 kts 233°
2026-05-06 23:51 -37.27279 145.72433 12827 ft 288 kts 233°
2026-05-06 23:52 -37.28369 145.70392 12546 ft 275 kts 236°
2026-05-06 23:52 -37.29229 145.68299 12328 ft 265 kts 242°
2026-05-06 23:52 -37.29924 145.66174 12116 ft 263 kts 245°
2026-05-06 23:52 -37.30536 145.64004 11906 ft 264 kts 247°
2026-05-06 23:53 -37.31086 145.61816 11687 ft 262 kts 248°
2026-05-06 23:53 -37.31593 145.59616 11490 ft 263 kts 249°
2026-05-06 23:53 -37.32072 145.57400 11296 ft 262 kts 250°
2026-05-06 23:53 -37.32521 145.55218 11100 ft 261 kts 250°
2026-05-06 23:54 -37.32961 145.53010 10912 ft 261 kts 251°
2026-05-06 23:54 -37.33395 145.50799 10707 ft 260 kts 251°
2026-05-06 23:54 -37.33822 145.48597 10527 ft 259 kts 251°
2026-05-06 23:54 -37.34244 145.46400 10353 ft 259 kts 251°
2026-05-06 23:55 -37.34667 145.44205 10176 ft 258 kts 251°
2026-05-06 23:55 -37.35088 145.42014 9982 ft 257 kts 251°
2026-05-06 23:55 -37.35506 145.39832 9791 ft 256 kts 251°
2026-05-06 23:55 -37.35919 145.37685 9609 ft 256 kts 251°
2026-05-06 23:56 -37.36334 145.35515 9422 ft 255 kts 251°
2026-05-06 23:56 -37.36750 145.33346 9223 ft 255 kts 251°
2026-05-06 23:56 -37.37164 145.31184 9044 ft 254 kts 251°
2026-05-06 23:56 -37.37577 145.29032 8876 ft 253 kts 251°
2026-05-06 23:57 -37.37989 145.26886 8707 ft 253 kts 251°
2026-05-06 23:57 -37.38398 145.24744 8521 ft 252 kts 250°
2026-05-06 23:57 -37.38800 145.22633 8351 ft 251 kts 251°
2026-05-06 23:57 -37.39207 145.20504 8190 ft 250 kts 251°
2026-05-06 23:58 -37.39613 145.18377 8032 ft 250 kts 251°
2026-05-06 23:58 -37.40016 145.16257 7891 ft 249 kts 250°
2026-05-06 23:58 -37.40418 145.14144 7684 ft 251 kts 250°
2026-05-06 23:58 -37.40824 145.12014 7342 ft 249 kts 251°
2026-05-06 23:59 -37.41220 145.09920 7031 ft 244 kts 250°
2026-05-06 23:59 -37.41613 145.07847 6740 ft 243 kts 250°
2026-05-06 23:59 -37.42002 145.05805 6431 ft 244 kts 250°
2026-05-06 23:59 -37.42392 145.03760 6143 ft 242 kts 251°
2026-05-07 00:00 -37.42781 145.01711 5933 ft 241 kts 251°
2026-05-07 00:00 -37.43166 144.99667 5737 ft 240 kts 251°
2026-05-07 00:00 -37.43555 144.97619 5536 ft 241 kts 251°
2026-05-07 00:00 -37.44246 144.95744 5156 ft 235 kts 229°
2026-05-07 00:01 -37.45320 144.94227 4796 ft 230 kts 224°
2026-05-07 00:01 -37.46458 144.92826 4438 ft 228 kts 222°
2026-05-07 00:01 -37.47622 144.91496 4110 ft 230 kts 220°
2026-05-07 00:01 -37.48834 144.90197 3797 ft 227 kts 219°
2026-05-07 00:02 -37.50070 144.88961 3461 ft 227 kts 217°
2026-05-07 00:02 -37.51296 144.87820 3146 ft 210 kts 216°
2026-05-07 00:02 -37.52461 144.86820 2874 ft 196 kts 214°
2026-05-07 00:02 -37.53572 144.85936 2606 ft 183 kts 213°
2026-05-07 00:03 -37.54642 144.85159 2361 ft 172 kts 211°
2026-05-07 00:03 -37.55679 144.84475 2166 ft 164 kts 209°
2026-05-07 00:03 -37.56689 144.83878 1948 ft 156 kts 207°
2026-05-07 00:03 -37.57670 144.83351 1767 ft 156 kts 205°
2026-05-07 00:04 -37.58677 144.82930 1597 ft 148 kts 194°
2026-05-07 00:04 -37.59630 144.82867 1467 ft 129 kts 188°
2026-05-07 00:04 -37.60518 144.82864 1345 ft 126 kts 186°
2026-05-07 00:04 -37.61402 144.82900 1208 ft 126 kts 185°
2026-05-07 00:05 -37.62264 144.82950 1076 ft 131 kts 182°
2026-05-07 00:05 -37.63179 144.83082 902 ft 136 kts 179°
2026-05-07 00:05 -37.64117 144.83267 688 ft 138 kts 179°
2026-05-07 00:05 -37.65051 144.83444 534 ft 137 kts 179°
2026-05-07 00:06 -37.65993 144.83623 423 ft 133 kts 176°
2026-05-07 00:06 -37.66766 144.83763 396 ft 80 kts 169°
2026-05-07 00:06 -37.67106 144.83932 383 ft 37 kts 140°
2026-05-07 00:06 -37.67175 144.84004 381 ft 1 kts 138°
2026-05-07 00:07 -37.67180 144.84010 381 ft 11 kts 137°
2026-05-07 00:07 -37.67216 144.84168 381 ft 18 kts 94°
2026-05-07 00:07 -37.67216 144.84243 383 ft 3 kts 85°
2026-05-07 00:07 -37.67215 144.84257 384 ft 1 kts 84°
2026-05-07 00:08 -37.67241 144.84297 383 ft 20 kts 166°
2026-05-07 00:08 -37.67380 144.84311 380 ft 18 kts 168°
2026-05-07 00:08 -37.67477 144.84365 377 ft 21 kts 102°
2026-05-07 00:08 -37.67504 144.84530 380 ft 18 kts 149°
2026-05-07 00:09 -37.67575 144.84592 377 ft 10 kts 108°
2026-05-07 00:09 -37.67571 144.84657 377 ft 5 kts 78°
2026-05-07 00:09 -37.67571 144.84661 377 ft 0 kts 82°